Location: Eschertshofen
(49.3064°N, 11.5756°E)
Time: 12:01:34
(UTC+00:00)

Cosmos 1092 Rocket - Pass Details

Date: 18 September 2020
Orbit: 954 x 995 km, 82.9° (Epoch: 24 October)

Event Time Altitude Azimuth Distance (km) Brightness Sun altitude
Rises 19:48:30 0° 348° (NNW) 3,646 7.7 -23.7°
Reaches altitude 10° 19:51:01 10° 346° (NNW) 2,697 6.9 -24.0°
Maximum altitude 19:57:07 68° 266° (W) 1,032 4.2 -24.9°
Enters shadow 20:00:16 30° 191° (SSW) 1,654 5.0 -25.3°
